Kaltag, AK

6:37 AM AKST on December 11, 2017 (GMT -0900)
Kaltag

Weather History for PAKV - October, 2011

Change the Weather History Date:

Saturday, October 29, 2011

  Actual Average (PAGA) Record (PAGA)
Temperature  
Mean Temperature 16 °F -  
Max Temperature 21 °F 17 °F 39 °F (2002)
Min Temperature 12 °F 5 °F -17 °F (1975)
Degree Days  
Heating Degree Days 48    
Moisture  
Dew Point 15 °F    
Average Humidity 85    
Maximum Humidity 92    
Minimum Humidity 80    
Precipitation  
Precipitation 0.00 in - - ()
Sea Level Pressure  
Sea Level Pressure 29.35 in    
Wind  
Wind Speed 6 mph (WSW)    
Max Wind Speed 12 mph    
Max Gust Speed -    
Visibility 9 miles    
Events Snow    
Averages and records for this station are not official NWS values.
T = Trace of Precipitation, MM = Missing Value Source: NWS Daily Summary

Daily Weather History Graph

Daily Weather History Graph

Search for Another Location

Airport or City:

Trip Planner

Search our weather history database for the weather conditions in past years. The results will help you decide how hot, cold, wet, or windy it might be!

Date:

Astronomy

Oct. 29, 2011 Rise Set
Actual Time 10:09 AM AKDT 6:26 PM AKDT
Civil Twilight 9:16 AM AKDT 7:19 PM AKDT
Nautical Twilight 8:19 AM AKDT 8:15 PM AKDT
Astronomical Twilight 7:24 AM AKDT 9:11 PM AKDT
Moon 3:22 PM AKDT (10/29) 7:24 PM AKDT (10/29)
Length of Visible Light 10h 02m
Length of Day
8h 17m
Waxing Crescent, 13% of the Moon is Illuminated
Oct 29
Waxing Crescent
Nov 2
First Quarter
Nov 10
Full
Nov 18
Last Quarter
Nov 24
New

Hourly Weather History & Observations

Time (AKDT) Temp. Windchill Dew Point Humidity Pressure Visibility Wind Dir Wind Speed Gust Speed Precip Events Conditions
12:53 AM 21.9 °F 10.4 °F 17.1 °F 82% 29.32 in 10.0 mi NE 11.5 mph - N/A   Overcast
1:53 AM 21.9 °F 13.4 °F 18.0 °F 85% 29.32 in 10.0 mi NE 6.9 mph - N/A   Overcast
2:53 AM 21.9 °F 11.0 °F 18.0 °F 85% 29.33 in 10.0 mi NE 10.4 mph - N/A   Overcast
3:53 AM 21.9 °F 11.7 °F 18.0 °F 85% 29.33 in 10.0 mi NE 9.2 mph - N/A   Overcast
4:53 AM 21.0 °F 13.4 °F 17.1 °F 85% 29.32 in 10.0 mi NNE 5.8 mph - N/A   Overcast
5:24 AM 21.2 °F 13.6 °F 17.6 °F 86% 29.31 in 10.0 mi NNE 5.8 mph - N/A   Overcast
5:53 AM 21.9 °F 12.5 °F 17.1 °F 82% 29.32 in 10.0 mi NNE 8.1 mph - N/A   Overcast
6:53 AM 21.0 °F 16.2 °F 18.0 °F 88% 29.32 in 3.0 mi NNE 3.5 mph - 0.00 in Snow Light Snow
7:53 AM 19.9 °F - 18.0 °F 92% 29.32 in 4.0 mi Calm Calm - 0.00 in Snow Light Snow
8:53 AM 21.0 °F - 18.0 °F 88% 29.32 in 2.5 mi Calm Calm - 0.00 in Snow Light Snow
9:00 AM 21.2 °F - 17.6 °F 86% 29.30 in 3.0 mi Calm Calm - 0.00 in Snow Light Snow
9:53 AM 16.0 °F - 14.0 °F 92% 29.32 in 10.0 mi Calm Calm - 0.00 in   Mostly Cloudy
10:53 AM 16.0 °F 10.4 °F 14.0 °F 92% 29.33 in 8.0 mi SSW 3.5 mph - N/A   Overcast
11:53 AM 17.1 °F 11.7 °F 14.0 °F 88% 29.34 in 10.0 mi SW 3.5 mph - N/A   Overcast
12:53 PM 17.1 °F 10.0 °F 12.9 °F 84% 29.34 in 10.0 mi SW 4.6 mph - N/A   Overcast
1:53 PM 17.1 °F 10.0 °F 12.9 °F 84% 29.35 in 10.0 mi SW 4.6 mph - N/A   Overcast
2:53 PM 17.1 °F 8.7 °F 12.9 °F 84% 29.35 in 10.0 mi SW 5.8 mph - N/A   Overcast
3:53 PM 17.1 °F 7.6 °F 12.0 °F 81% 29.35 in 10.0 mi SW 6.9 mph - N/A   Overcast
4:53 PM 19.0 °F 11.1 °F 14.0 °F 81% 29.35 in 10.0 mi SW 5.8 mph - N/A   Overcast
5:53 PM 19.0 °F 13.9 °F 14.0 °F 81% 29.36 in 10.0 mi SW 3.5 mph - N/A   Overcast
6:53 PM 19.0 °F 13.9 °F 14.0 °F 81% 29.37 in 10.0 mi SSW 3.5 mph - N/A   Overcast
7:53 PM 14.0 °F 5.1 °F 10.0 °F 84% 29.38 in 10.0 mi WSW 5.8 mph - N/A   Scattered Clouds
8:53 PM 12.9 °F 6.9 °F 9.0 °F 84% 29.39 in 10.0 mi SW 3.5 mph - 0.00 in   Mostly Cloudy
9:53 PM 14.0 °F 6.5 °F 10.0 °F 84% 29.41 in 10.0 mi WSW 4.6 mph - N/A   Overcast
10:53 PM 15.1 °F 7.7 °F 10.0 °F 80% 29.43 in 10.0 mi SW 4.6 mph - N/A   Overcast
11:53 PM 15.1 °F 7.7 °F 10.9 °F 84% 29.45 in 10.0 mi SW 4.6 mph - N/A   Overcast